| time (UTC) | temp F | wind direction | speed MPH | gust MPH | rain 1hr in | rain 24hr in | rain mn in | humidity % | barometer mb |
| 20260507070058 | 29 | 102 | 0.0 | 0.0 | 0.00 | 0.00 | 0.00 | 89 | 1013.1 |
| 20260507064554 | 29 | 102 | 0.0 | 0.0 | 0.00 | 0.00 | 0.00 | 90 | 1013.4 |
| 20260507063049 | 29 | 102 | 0.0 | 0.0 | 0.00 | 0.00 | 0.00 | 89 | 1013.4 |
| 20260507061548 | 29 | 102 | 0.0 | 0.0 | 0.00 | 0.00 | 0.00 | 88 | 1013.4 |
| 20260507060048 | 30 | 101 | 0.0 | 0.0 | 0.00 | 0.00 | 0.00 | 87 | 1013.4 |
| 20260507054543 | 31 | 101 | 0.0 | 0.0 | 0.00 | 0.00 | 0.00 | 87 | 1013.5 |
| 20260507053041 | 31 | 102 | 0.0 | 0.0 | 0.00 | 0.00 | 0.00 | 84 | 1013.5 |
| 20260507051536 | 33 | 101 | 0.0 | 0.0 | 0.00 | 0.00 | 0.00 | 80 | 1013.6 |
| 20260507050033 | 36 | 252 | 0.0 | 3.0 | 0.00 | 0.00 | 0.00 | 75 | 1013.6 |
| 20260507044528 | 38 | 253 | 0.0 | 3.0 | 0.00 | 0.00 | 0.00 | 71 | 1013.7 |
| 20260507043026 | 38 | 275 | 2.0 | 4.0 | 0.00 | 0.00 | 0.00 | 72 | 1013.8 |
| 20260507041524 | 38 | 259 | 0.0 | 2.0 | 0.00 | 0.00 | 0.00 | 73 | 1013.9 |
| 20260507040021 | 39 | 272 | 2.0 | 5.0 | 0.00 | 0.00 | 0.00 | 72 | 1013.9 |
| 20260507034522 | 39 | 276 | 2.0 | 5.0 | 0.00 | 0.00 | 0.00 | 74 | 1013.9 |
| 20260507033028 | 39 | 257 | 2.0 | 4.0 | 0.00 | 0.00 | 0.00 | 71 | 1013.8 |
| 20260507031524 | 40 | 254 | 1.0 | 4.0 | 0.00 | 0.00 | 0.00 | 69 | 1013.9 |
| 20260507030019 | 40 | 262 | 1.0 | 5.0 | 0.00 | 0.00 | 0.00 | 67 | 1013.7 |
| 20260507024516 | 40 | 264 | 1.0 | 4.0 | 0.00 | 0.00 | 0.00 | 66 | 1013.8 |
| 20260507023016 | 40 | 244 | 0.0 | 4.0 | 0.00 | 0.00 | 0.00 | 66 | 1013.8 |
| 20260507021515 | 40 | 250 | 2.0 | 5.0 | 0.00 | 0.00 | 0.00 | 61 | 1013.7 |
| 20260507020017 | 40 | 267 | 2.0 | 4.0 | 0.00 | 0.00 | 0.00 | 62 | 1013.7 |
| 20260507014513 | 41 | 264 | 3.0 | 4.0 | 0.00 | 0.00 | 0.00 | 64 | 1013.7 |
| 20260507013011 | 41 | 275 | 2.0 | 4.0 | 0.00 | 0.00 | 0.00 | 63 | 1013.5 |
| 20260507011524 | 41 | 260 | 3.0 | 6.0 | 0.00 | 0.00 | 0.00 | 62 | 1013.4 |
| 20260507010010 | 41 | 263 | 0.0 | 3.0 | 0.00 | 0.00 | 0.00 | 62 | 1013.3 |
| 20260507004508 | 41 | 275 | 0.0 | 5.0 | 0.00 | 0.00 | 0.00 | 63 | 1013.4 |
| 20260507003008 | 41 | 271 | 3.0 | 8.0 | 0.00 | 0.00 | 0.00 | 60 | 1013.2 |
| 20260507001509 | 42 | 256 | 0.0 | 9.0 | 0.00 | 0.00 | 0.00 | 61 | 1013.2 |
| 20260507000007 | 42 | 254 | 2.0 | 8.0 | 0.00 | 0.00 | 0.00 | 64 | 1013.2 |
| 20260506234506 | 42 | 248 | 2.0 | 8.0 | 0.00 | 0.00 | 0.00 | 65 | 1013.2 |
| 20260506233005 | 42 | 278 | 6.0 | 10.0 | 0.00 | 0.00 | 0.00 | 64 | 1013.2 |
| 20260506231505 | 42 | 268 | 8.0 | 11.0 | 0.00 | 0.00 | 0.00 | 61 | 1013.2 |
| 20260506230007 | 42 | 272 | 7.0 | 11.0 | 0.00 | 0.00 | 0.00 | 64 | 1013.2 |
| 20260506224503 | 42 | 276 | 7.0 | 12.0 | 0.00 | 0.00 | 0.00 | 59 | 1013.2 |
| 20260506223003 | 42 | 266 | 6.0 | 11.0 | 0.00 | 0.00 | 0.00 | 65 | 1013.2 |
| 20260506221502 | 42 | 261 | 8.0 | 12.0 | 0.00 | 0.00 | 0.00 | 61 | 1013.2 |
| 20260506220002 | 42 | 260 | 10.0 | 14.0 | 0.00 | 0.00 | 0.00 | 62 | 1013.2 |
| 20260506214501 | 42 | 259 | 9.0 | 16.0 | 0.00 | 0.00 | 0.00 | 62 | 1013.2 |
| 20260506213107 | 42 | 271 | 10.0 | 17.0 | 0.00 | 0.00 | 0.00 | 62 | 1013.2 |
| 20260506211601 | 42 | 264 | 12.0 | 17.0 | 0.00 | 0.00 | 0.00 | 64 | 1013.1 |
| 20260506210100 | 42 | 274 | 11.0 | 17.0 | 0.00 | 0.00 | 0.00 | 62 | 1013.0 |
| 20260506204601 | 42 | 249 | 13.0 | 17.0 | 0.00 | 0.00 | 0.00 | 62 | 1013.0 |
| 20260506203058 | 42 | 261 | 10.0 | 17.0 | 0.00 | 0.00 | 0.00 | 65 | 1013.1 |
| 20260506201558 | 43 | 231 | 11.0 | 18.0 | 0.00 | 0.00 | 0.00 | 61 | 1013.1 |
| 20260506200059 | 43 | 247 | 10.0 | 16.0 | 0.00 | 0.00 | 0.00 | 66 | 1013.1 |
| 20260506194556 | 43 | 269 | 13.0 | 18.0 | 0.00 | 0.00 | 0.00 | 63 | 1013.1 |
| 20260506193055 | 42 | 269 | 12.0 | 21.0 | 0.00 | 0.00 | 0.00 | 63 | 1013.1 |
| 20260506191554 | 43 | 264 | 12.0 | 18.0 | 0.00 | 0.00 | 0.00 | 65 | 1013.1 |
| 20260506190058 | 43 | 260 | 13.0 | 18.0 | 0.00 | 0.00 | 0.00 | 67 | 1013.1 |
| 20260506184554 | 43 | 269 | 14.0 | 18.0 | 0.00 | 0.00 | 0.00 | 63 | 1013.1 |
| 20260506183052 | 43 | 281 | 15.0 | 20.0 | 0.00 | 0.00 | 0.00 | 65 | 1013.0 |
| 20260506181552 | 42 | 266 | 12.0 | 19.0 | 0.00 | 0.00 | 0.00 | 66 | 1013.0 |
| 20260506180052 | 42 | 245 | 14.0 | 20.0 | 0.00 | 0.00 | 0.00 | 66 | 1013.1 |
| 20260506174550 | 42 | 279 | 14.0 | 19.0 | 0.00 | 0.00 | 0.00 | 65 | 1013.2 |
| 20260506173122 | 42 | 259 | 14.0 | 22.0 | 0.00 | 0.00 | 0.00 | 66 | 1013.3 |
| 20260506171549 | 42 | 276 | 14.0 | 21.0 | 0.00 | 0.00 | 0.00 | 63 | 1013.3 |
| 20260506170048 | 42 | 251 | 14.0 | 19.0 | 0.00 | 0.00 | 0.00 | 62 | 1013.5 |
| 20260506164555 | 42 | 264 | 13.0 | 20.0 | 0.00 | 0.00 | 0.00 | 68 | 1013.5 |
| 20260506163053 | 42 | 249 | 16.0 | 24.0 | 0.00 | 0.00 | 0.00 | 70 | 1013.5 |
| 20260506161603 | 42 | 264 | 18.0 | 22.0 | 0.00 | 0.00 | 0.00 | 67 | 1013.4 |
| 20260506160046 | 42 | 262 | 13.0 | 21.0 | 0.00 | 0.00 | 0.00 | 68 | 1013.3 |
| 20260506154545 | 42 | 255 | 15.0 | 22.0 | 0.00 | 0.00 | 0.00 | 69 | 1013.1 |
| 20260506153045 | 42 | 251 | 16.0 | 21.0 | 0.00 | 0.00 | 0.00 | 68 | 1012.8 |
| 20260506151539 | 42 | 261 | 12.0 | 20.0 | 0.00 | 0.00 | 0.00 | 66 | 1012.8 |
| 20260506150041 | 42 | 293 | 11.0 | 17.0 | 0.00 | 0.00 | 0.00 | 65 | 1012.7 |
| 20260506144540 | 42 | 260 | 12.0 | 17.0 | 0.00 | 0.00 | 0.00 | 62 | 1012.7 |
| 20260506143037 | 41 | 254 | 15.0 | 20.0 | 0.00 | 0.00 | 0.00 | 65 | 1012.6 |
| 20260506141534 | 42 | 263 | 13.0 | 16.0 | 0.00 | 0.00 | 0.00 | 61 | 1012.4 |
| 20260506140032 | 42 | 263 | 5.0 | 11.0 | 0.00 | 0.00 | 0.00 | 60 | 1012.3 |
| 20260506134528 | 41 | 263 | 2.0 | 10.0 | 0.00 | 0.00 | 0.00 | 61 | 1012.3 |
| 20260506133024 | 40 | 262 | 9.0 | 15.0 | 0.00 | 0.00 | 0.00 | 66 | 1012.4 |
| 20260506131531 | 40 | 270 | 10.0 | 13.0 | 0.00 | 0.00 | 0.00 | 70 | 1012.4 |
| 20260506130020 | 39 | 262 | 7.0 | 10.0 | 0.00 | 0.00 | 0.00 | 67 | 1012.6 |
| 20260506124518 | 39 | 271 | 8.0 | 11.0 | 0.00 | 0.00 | 0.00 | 73 | 1012.5 |
| 20260506123015 | 38 | 273 | 6.0 | 10.0 | 0.00 | 0.00 | 0.00 | 75 | 1012.4 |
| 20260506121514 | 36 | 234 | 2.0 | 5.0 | 0.00 | 0.00 | 0.00 | 78 | 1012.2 |
| 20260506120018 | 35 | 272 | 2.0 | 0.0 | 0.00 | 0.00 | 0.00 | 82 | 1012.1 |
| 20260506114511 | 33 | 98 | 0.0 | 0.0 | 0.00 | 0.00 | 0.00 | 84 | 1011.9 |
| 20260506113010 | 32 | 98 | 0.0 | 1.0 | 0.00 | 0.00 | 0.00 | 84 | 1011.8 |
| 20260506111508 | 31 | 98 | 0.0 | 0.0 | 0.00 | 0.00 | 0.00 | 84 | 1011.7 |
| 20260506110007 | 31 | 98 | 0.0 | 1.0 | 0.00 | 0.00 | 0.00 | 81 | 1011.5 |
| 20260506104505 | 34 | 271 | 2.0 | 4.0 | 0.00 | 0.00 | 0.00 | 77 | 1011.4 |
| 20260506103006 | 34 | 265 | 3.0 | 5.0 | 0.00 | 0.00 | 0.00 | 77 | 1011.3 |
| 20260506101506 | 30 | 266 | 0.0 | 2.0 | 0.00 | 0.00 | 0.00 | 89 | 1011.2 |
| 20260506100120 | 29 | 282 | 0.0 | 0.0 | 0.00 | 0.00 | 0.00 | 86 | 1011.1 |
| 20260506094559 | 30 | 283 | 0.0 | 0.0 | 0.00 | 0.00 | 0.00 | 85 | 1011.1 |
| 20260506093054 | 31 | 283 | 0.0 | 0.0 | 0.00 | 0.00 | 0.00 | 81 | 1011.0 |
| 20260506091551 | 32 | 283 | 0.0 | 0.0 | 0.00 | 0.00 | 0.00 | 78 | 1011.0 |
| 20260506090046 | 34 | 283 | 0.0 | 0.0 | 0.00 | 0.00 | 0.00 | 75 | 1011.0 |
| 20260506084601 | 36 | 284 | 0.0 | 2.0 | 0.00 | 0.00 | 0.00 | 73 | 1011.1 |
| 20260506083040 | 36 | 266 | 1.0 | 3.0 | 0.00 | 0.00 | 0.00 | 72 | 1011.2 |
| 20260506081545 | 36 | 250 | 0.0 | 4.0 | 0.00 | 0.00 | 0.00 | 71 | 1011.1 |
| 20260506073042 | 37 | 264 | 2.0 | 4.0 | 0.00 | 0.00 | 0.00 | 69 | 1011.0 |
| 20260506071532 | 37 | 270 | 1.0 | 6.0 | 0.00 | 0.00 | 0.00 | 67 | 1011.1 |